Volver al catálogo

SL-12 DEB

LostHEO
NORAD 42973·DEBRIS·🇷🇺 Russia

Lanzado Sep 2, 2010 desde Baikonur Cosmodrome

Loading…

Próximos Pases (próximas 24 horas)

TLE

ObsoletoSource: Space-Track

Época: May 13, 2022, 10:13 UTC

1 42973U 10041N   22133.42580311  .00007144  00000-0  60255-1 0  9991
2 42973  63.0765 296.4460 5544076  35.7200 351.0833  4.34293870 72689

Sigue SL-12 DEB en tiempo real con AllMySat

Download on the App Store